Regional Weather Roundup
Issued by NWS

Home | Current Version | Previous Version | Graphics & Text | Print | Product List | Glossary Off
Versions: 1 2 3 4 5 6 7 8 9 10 11 12 13 14 15 16 17 18 19 20 21 22 23 24 25 26 27 28 29 30 31 32 33 34 35 36 37 38 39 40 41 42 43 44 45 46 47 48 49 50

000
ASUS43 KTOP 201859
RWRKS

WEATHER ROUNDUP FOR KANSAS
NATIONAL WEATHER SERVICE GOODLAND KS
200 PM CDT WED AUG 20 2014

NOTE:  "FAIR" INDICATES FEW OR NO CLOUDS BELOW 12,000 FEET WITH NO
SIGNIFICANT WEATHER AND/OR OBSTRUCTIONS TO VISIBILITY.

KSZ001>006-013>018-027>032-041>047-202000-
NORTHWEST KANSAS

CITY           SKY/WX    TMP DP  RH WIND       PRES   REMARKS
GOODLAND       PTSUNNY   93  54  26 VRB5      29.83F
HAYS           SUNNY     95  66  38 S21G30    29.78F HX  98
HILL CITY      SUNNY     95  65  37 S16G26    29.75F HX  97
RUSSELL        SUNNY     93  66  40 S21G31    29.77F HX  96
$$

KSZ061>065-074>080-084>089-202000-
SOUTHWEST KANSAS

CITY           SKY/WX    TMP DP  RH WIND       PRES   REMARKS
DODGE CITY     SUNNY     93  64  38 S21G31    29.83F
ELKHART          N/A     94  62  34 S14         N/A
GARDEN CITY    MOSUNNY   93  64  38 S16G24    29.82F
GREAT BEND     SUNNY     97  66  36 S24G30    29.79F HX 100
LIBERAL        SUNNY     99  63  30 S23       29.85F HX 100
$$

KSZ066>073-081>083-090>101-202000-
SOUTHEAST KANSAS

CITY           SKY/WX    TMP DP  RH WIND       PRES   REMARKS
CHANUTE        SUNNY     93  69  45 S16G26    29.91S HX  98
COFFEYVILLE    SUNNY     93  70  46 S20G29    29.91S HX  99
HUTCHINSON     SUNNY     95  66  38 S22G30    29.83F HX  98
NEWTON         SUNNY     91  66  43 S21G30    29.89F
PARSONS        SUNNY     93  71  48 SW14G22   29.92F HX 100
WICHITA INTL   MOSUNNY   94  68  42 S24       29.85F HX  98
WICHITA JABRA  SUNNY     91  70  49 S17G30    29.86F HX  96
WINFIELD       SUNNY     93  71  48 S20G29    29.89F HX 100
$$

KSZ007>012-019>026-033>040-048>060-102>105-202000-
NORTHEAST KANSAS

CITY           SKY/WX    TMP DP  RH WIND       PRES   REMARKS
EMPORIA        MOSUNNY   93  68  43 S16       29.86F HX  97
LAWRENCE       PTSUNNY   94  69  44 S12       29.86S HX  99
MANHATTAN      SUNNY     96  68  39 S15G22    29.81F HX 101
OLATHE IND     PTSUNNY   93  68  43 S16G24    29.90S HX  97
OLATHE EXE     CLOUDY    88  70  55 S9        29.89F
SALINA         SUNNY     94  69  44 S17G28    29.80F HX  99
TOPEKA BILLARD MOSUNNY   93  70  46 S13       29.85F HX  99
TOPEKA FORBES  MOSUNNY   94  67  41 S18G28    29.85F HX  97
$$


USA.gov is the U.S. government's official web portal to all federal, state and local government web resources and services.